Theta_e
306 307 309 310 311 310 309 310 299 320 324 302 303 303 304 305 306 308 306 305 302 301 302 300 299 298 302 307 306 301 304 301 297 297 304 306 303 301 300 296 292 297 294 292
305 307 308 310 310 310 309 304 307 322 319 296 300 306 305 306 305 306 306 304 305 304 302 298 301 302 308 309 306 303 306 299 293 294 300 304 300 301 300 301 301 294 291 293
302 306 307 309 310 310 310 306 300 309 313 307 303 303 302 302 308 306 307 305 306 303 301 303 300 302 306 308 308 302 308 301 296 292 295 301 299 300 300 299 295 295 293 295
301 305 306 308 309 310 309 309 304 308 300 304 305 308 304 301 301 306 308 304 303 303 300 301 301 304 305 306 302 305 305 297 299 299 300 300 300 299 299 297 298 293 297 296
302 305 306 307 309 309 305 304 305 310 306 306 305 304 304 302 303 305 304 304 304 305 302 303 301 304 305 303 306 305 306 299 301 298 300 300 297 299 299 298 298 298 298 297
304 305 305 307 308 309 305 311 316 310 304 305 304 305 306 305 306 307 308 307 306 304 307 310 312 313 312 309 307 305 305 303 297 292 296 294 289 296 297 298 300 299 294 301
305 305 306 306 307 308 311 313 315 306 301 303 304 307 307 305 306 307 309 311 308 311 315 314 312 310 308 309 307 309 303 301 298 294 290 285 295 301 300 298 298 300 299 301
304 305 305 305 304 308 312 318 315 309 298 306 305 307 307 307 307 309 309 311 315 317 312 305 300 302 299 301 303 302 305 302 295 290 290 293 295 298 297 296 296 301 299 300
304 304 304 303 304 303 309 314 314 316 306 306 309 306 308 305 308 307 307 314 319 316 313 306 296 294 297 296 298 301 300 303 299 293 290 286 297 300 303 301 292 302 302 302
304 304 303 303 303 304 306 313 315 315 307 312 311 306 306 310 310 307 308 307 308 312 306 296 301 298 301 295 294 291 295 297 291 293 291 295 300 301 303 291 295 304 304 304
303 303 303 303 303 305 307 307 312 313 309 312 315 313 308 312 313 306 310 307 309 312 303 302 304 299 302 300 299 296 294 294 292 296 288 286 302 301 296 304 307 305 305 306
303 304 303 304 306 307 309 304 314 318 317 315 322 319 320 318 316 315 313 311 309 312 308 306 309 294 293 299 295 302 296 301 300 297 297 305 305 303 306 307 305 306 306 306
303 304 305 305 306 307 308 308 312 322 319 314 314 313 318 321 322 326 311 315 316 315 321 315 311 293 304 293 300 303 302 304 302 301 300 302 304 305 305 306 306 307 308 308
304 304 305 305 306 307 308 308 314 322 317 301 311 319 315 319 321 322 322 322 323 321 319 313 297 297 309 303 305 306 304 303 299 300 302 303 304 306 307 307 308 308 308 306
304 305 305 305 307 308 310 312 317 325 316 305 308 315 316 317 319 318 320 321 318 316 310 297 306 310 307 306 307 304 304 301 301 300 304 304 304 305 306 303 302 302 301 299
304 305 305 306 307 307 311 310 321 323 325 313 304 313 312 315 317 316 316 318 318 316 312 307 310 309 309 298 299 303 304 305 305 303 306 306 304 302 302 299 299 299 298 297
304 305 305 306 306 314 312 307 310 308 324 313 301 301 310 315 314 314 314 317 316 315 312 307 308 306 307 297 299 303 302 302 305 304 305 301 302 298 301 297 297 296 294 294
304 305 305 306 306 308 311 313 308 308 315 314 299 293 302 312 308 305 312 313 313 309 304 306 306 303 308 300 301 301 300 302 301 301 302 301 300 298 296 296 295 293 291 291
305 305 306 311 315 313 313 304 305 321 311 299 301 294 293 309 302 304 306 310 300 305 299 305 305 296 296 299 299 298 298 300 299 300 300 298 295 294 294 293 292 290 290 292
306 311 312 303 309 305 306 311 310 309 306 307 295 302 296 303 298 295 298 301 297 293 297 302 297 295 296 297 298 298 299 300 300 295 291 292 291 292 292 292 292 291 289 289
317 310 302 309 306 310 306 299 300 300 295 298 297 299 297 304 297 294 298 294 295 291 294 295 292 290 292 295 295 297 299 299 298 297 295 295 293 292 291 289 288 288 287 285
310 310 310 309 306 300 292 292 295 296 292 292 293 296 298 299 305 296 296 290 293 289 296 290 288 291 292 293 293 295 296 296 295 295 293 293 291 290 289 288 287 285 285 284
312 304 295 298 293 288 289 285 288 287 290 290 291 290 297 298 300 294 293 288 290 296 288 288 289 290 291 292 293 293 294 294 293 291 291 290 289 288 286 285 285 286 287 285
299 292 286 287 286 285 285 286 286 286 287 289 293 291 293 292 290 291 287 287 292 286 284 287 287 289 290 292 292 292 290 289 289 289 287 286 284 284 284 284 284 282 282 283
290 289 283 283 285 286 286 286 287 287 291 291 295 295 295 290 287 289 287 285 285 286 287 287 288 289 290 290 291 288 288 287 288 288 286 284 285 284 283 283 283 283 281 281
288 286 284 285 285 284 285 285 285 288 289 293 295 290 288 286 288 287 285 287 285 285 286 286 287 287 289 290 289 289 290 290 288 287 286 285 285 284 283 283 282 281 280 278
287 285 285 285 285 284 285 285 286 289 288 286 289 286 283 288 286 285 286 283 285 284 286 286 287 287 289 290 289 289 289 289 288 287 286 285 284 284 283 282 281 282 282 278
Wind_Speed
23 25 24 22 23 27 18 11 10 16 18 12 11 15 22 21 23 9 9 16 16 15 12 13 12 14 13 10 8 5 6 3 4 10 2 6 8 10 11 3 5 2 1 7
21 25 26 24 27 31 10 12 8 12 13 15 13 18 25 24 25 14 15 15 17 10 11 7 10 5 5 7 2 1 1 2 5 8 7 8 8 11 10 5 3 5 3 4
21 24 25 26 29 32 12 11 11 6 10 11 19 23 20 24 23 17 14 15 13 8 10 9 9 6 4 3 3 4 4 5 9 6 10 4 7 12 10 10 4 3 8 13
25 26 25 26 28 32 12 9 12 11 14 18 19 20 18 25 21 19 15 16 17 11 8 11 7 7 7 3 3 2 3 7 10 13 15 3 10 11 8 12 10 10 10 14
26 27 24 25 25 31 11 10 11 13 9 20 21 20 25 24 22 17 15 15 12 14 9 9 10 11 9 8 8 7 5 2 4 3 11 14 12 14 13 15 14 14 14 13
29 26 25 24 23 26 7 10 10 9 13 22 20 20 22 24 18 19 18 18 14 17 5 10 11 12 8 4 10 9 6 3 2 2 5 7 6 9 16 15 14 12 11 10
27 24 23 20 20 28 8 12 8 5 15 19 22 24 23 23 21 12 9 12 14 9 14 14 13 12 10 8 6 7 4 3 1 1 2 1 8 3 6 5 8 10 11 9
23 23 22 21 16 21 16 6 3 4 9 17 25 27 22 23 19 13 10 8 7 14 9 5 4 2 3 1 4 4 6 4 2 2 4 7 11 2 2 1 3 11 10 11
21 23 22 21 20 18 17 11 3 7 10 17 29 23 19 13 6 3 5 10 6 4 3 2 4 4 5 7 7 2 4 4 1 3 2 4 0 4 2 2 2 9 9 8
21 23 23 19 17 22 13 9 12 6 5 13 20 19 14 11 10 6 11 5 3 4 3 2 3 4 6 6 6 4 3 1 4 3 2 6 3 5 1 2 3 4 6 7
24 22 22 22 20 19 15 12 12 6 4 11 18 16 15 9 12 8 9 7 3 3 2 3 3 2 4 2 6 7 6 6 3 2 2 6 5 5 3 4 4 7 7 7
21 21 23 19 18 21 17 8 13 14 12 6 11 12 12 5 6 6 9 5 10 6 4 1 4 2 3 3 2 10 3 5 3 8 4 5 3 4 3 5 4 4 5 6
23 22 18 18 18 20 20 11 8 6 2 5 5 7 7 11 7 5 4 4 8 6 3 4 3 4 4 4 4 3 4 4 1 2 4 5 3 1 0 5 8 9 9 8
26 28 22 19 19 20 20 12 12 9 7 6 5 1 4 5 3 4 3 1 6 7 5 3 4 4 5 3 2 3 1 8 7 6 8 5 7 12 11 8 9 11 11 14
15 18 18 19 19 19 11 8 11 9 4 5 5 6 4 0 3 5 4 6 7 5 3 3 3 2 4 2 1 1 6 4 3 3 9 3 10 11 9 12 11 11 11 14
22 21 22 21 20 17 4 6 4 6 3 5 4 1 2 5 8 8 8 6 5 4 4 2 3 2 2 4 3 6 9 7 6 4 6 5 12 12 13 13 13 14 14 15
20 20 20 19 17 9 3 4 4 12 6 4 4 3 1 5 8 4 4 2 2 2 3 2 3 3 2 3 3 12 7 5 6 5 4 10 7 8 13 14 13 14 13 11
22 20 19 17 14 9 2 3 6 7 2 4 4 0 3 2 2 3 4 2 3 5 4 1 3 3 2 2 9 9 6 4 7 6 9 12 13 14 12 11 11 12 12 11
24 23 24 9 5 3 2 7 10 4 6 2 2 5 4 4 3 2 2 1 3 1 2 2 4 1 3 6 8 7 5 3 8 8 14 13 12 11 11 11 11 11 8 7
29 18 5 4 2 0 3 1 3 5 5 3 1 2 3 2 3 2 2 2 3 3 2 2 1 3 5 5 6 6 4 6 8 13 11 10 10 10 10 11 12 11 9 9
4 5 4 3 3 1 4 3 3 4 1 1 1 3 3 3 3 3 2 2 0 4 3 4 3 3 6 6 8 4 5 10 8 12 11 10 10 9 11 10 10 9 9 8
6 11 6 2 2 4 6 4 2 2 1 1 1 2 3 2 1 4 2 3 2 3 4 3 4 4 10 9 8 7 9 12 13 14 13 12 12 11 10 9 7 6 7 7
5 7 6 4 4 5 1 4 1 1 2 2 2 2 2 2 4 3 3 4 3 5 2 3 3 8 8 9 9 10 11 12 13 13 13 13 13 11 9 8 6 4 8 8
6 4 6 5 4 3 1 2 1 2 3 1 2 2 3 1 4 1 4 1 2 3 4 3 5 9 8 7 9 12 12 9 12 12 11 10 11 9 9 8 6 5 6 7
7 6 5 4 2 1 1 3 2 2 2 2 2 3 4 3 4 2 4 2 3 4 1 2 5 9 7 9 10 12 8 6 9 9 9 10 9 7 8 5 5 6 4 5
4 6 3 2 2 4 4 4 3 5 3 2 2 3 4 4 2 1 1 3 1 3 2 3 7 8 7 8 11 9 7 7 10 9 9 8 7 6 8 6 4 4 5 3
5 4 3 3 4 4 2 2 3 3 2 3 3 4 3 0 1 3 4 4 3 2 3 3 6 9 7 9 9 7 7 9 9 9 8 7 6 4 3 4 6 3 5 2
Wind_Direction
224 207 199 190 175 170 178 193 209 137 144 184 209 219 216 227 246 203 255 267 230 225 199 190 222 222 219 183 222 204 245 288 279 246 301 342 320 297 213 161 272 131 355 282
239 209 201 190 175 174 171 190 179 163 175 197 204 213 223 226 238 198 215 248 255 197 237 192 221 200 42 59 170 13 312 238 258 277 214 211 244 251 256 285 69 205 172 264
245 210 203 191 180 182 204 183 178 174 216 220 199 204 211 219 239 243 204 230 240 203 219 204 203 185 108 103 74 41 327 258 256 241 258 336 226 238 246 229 151 237 255 274
234 211 199 197 183 188 213 211 206 183 186 202 200 200 212 213 213 221 227 214 219 204 209 189 216 187 112 138 118 175 241 244 269 276 270 267 296 299 255 243 235 231 254 265
218 205 194 190 185 192 212 210 198 163 184 186 208 210 213 210 204 186 223 234 213 203 195 207 194 208 156 180 166 197 196 221 335 299 292 284 271 278 278 276 275 258 270 276
205 195 190 184 186 194 194 226 264 166 169 183 200 211 207 216 201 211 215 210 203 220 139 90 62 46 155 205 159 197 150 131 140 242 348 346 320 237 249 258 263 266 268 280
193 189 181 169 197 202 219 230 237 210 178 188 200 197 213 212 214 189 186 220 229 107 109 83 66 68 75 87 38 174 111 160 101 86 308 278 242 13 344 315 308 298 306 355
189 184 175 166 199 222 223 217 315 241 205 186 192 204 197 202 219 179 165 32 91 144 117 105 118 81 64 162 124 134 162 134 132 146 221 290 310 298 2 16 339 34 32 22
190 185 173 173 201 231 227 245 339 277 175 205 191 191 199 197 132 61 102 91 109 129 95 116 183 174 200 157 139 105 70 51 175 166 233 230 135 79 27 342 204 51 27 13
179 174 169 178 203 222 231 234 214 246 222 193 192 194 188 189 122 134 134 144 114 339 90 121 177 185 199 149 167 168 101 187 186 156 238 296 338 111 23 226 66 42 5 359
184 179 176 189 215 221 213 234 237 286 280 179 186 192 181 165 171 154 134 147 163 138 139 159 133 111 208 157 182 163 168 161 182 139 147 267 125 128 120 56 1 5 349 346
187 185 190 191 203 189 188 246 247 234 218 85 67 59 34 9 153 121 166 178 156 163 157 90 73 71 24 38 199 202 181 191 177 173 203 151 181 36 12 19 348 334 319 326
192 190 188 184 181 188 187 232 253 287 155 87 102 77 49 40 37 51 140 233 167 159 90 128 117 143 171 146 215 152 209 96 177 49 253 202 185 324 88 53 24 0 342 335
174 185 187 177 183 182 201 225 247 289 78 106 92 168 45 354 14 93 41 288 47 102 107 102 131 133 222 185 272 125 351 147 199 212 260 310 73 54 40 23 18 22 4 37
167 169 171 179 174 182 183 237 271 307 342 105 110 106 15 357 177 151 132 132 133 133 111 104 143 103 99 40 358 202 187 203 168 216 77 30 44 58 39 58 49 38 34 54
164 165 168 169 163 164 128 242 201 323 52 102 115 68 55 135 162 162 159 169 187 187 104 116 83 53 148 144 181 96 85 73 41 49 44 48 89 73 73 71 59 60 60 59
156 157 155 150 157 163 291 329 342 328 313 99 110 116 76 90 75 42 97 169 49 115 95 90 141 125 115 145 193 117 103 84 86 41 323 96 87 101 88 87 88 81 78 76
147 139 136 137 130 112 239 22 344 339 53 66 100 284 121 264 106 102 326 95 112 19 85 62 87 63 355 196 112 110 89 133 92 78 69 96 89 87 90 96 96 93 89 87
131 130 125 129 170 174 30 327 300 45 68 27 103 156 145 107 49 58 98 123 87 103 95 123 112 147 172 87 127 112 85 126 125 107 85 88 99 104 103 102 102 101 106 89
140 141 135 112 83 100 305 205 50 28 44 320 320 355 130 66 154 85 103 352 135 125 90 125 158 100 95 88 84 101 88 134 133 110 112 116 118 120 123 98 80 81 72 67
167 73 67 94 141 97 33 55 34 102 161 5 260 186 140 347 126 123 346 129 109 146 125 169 155 193 166 141 99 74 69 86 92 111 124 136 128 118 96 87 75 64 68 61
84 104 113 97 89 58 67 20 4 350 65 10 284 66 82 60 262 106 177 99 142 140 124 144 189 104 131 134 128 121 111 113 113 109 97 94 97 91 84 84 80 78 90 69
66 58 63 31 345 80 148 184 84 176 209 242 215 97 105 105 66 77 103 119 115 122 115 200 60 130 135 142 137 116 109 105 107 104 93 87 82 76 84 86 64 62 75 64
64 61 72 31 73 67 20 333 91 209 243 307 117 65 81 116 64 69 101 52 156 152 201 193 143 151 146 143 130 125 110 88 90 96 101 98 99 91 86 85 85 81 62 64
58 34 58 68 93 48 222 230 174 307 260 313 80 54 66 50 93 53 121 134 179 214 189 87 129 138 141 135 128 109 108 106 110 114 111 115 116 110 102 81 78 75 67 62
59 43 79 359 79 27 25 4 22 358 347 319 31 72 64 46 56 148 132 183 152 71 65 115 130 126 124 144 119 137 139 113 108 115 118 121 122 119 114 110 95 110 82 48
47 38 0 43 81 51 18 350 337 300 33 45 360 54 53 282 68 67 18 32 29 89 85 101 130 134 138 121 102 104 109 114 120 123 128 123 117 136 117 89 61 55 113 71